Location: Elk Forest
(39.5314°N, 75.8738°W)
Time: 02:48:54
(UTC-05:00)

Daily predictions for brighter satellites

Satellite Brightness Start Highest point End
(mag) Time Altitude Azimuth Time Altitude Azimuth Time Altitude Azimuth
SL-16 R/B 4.3 04:27:06 15° N 04:27:06 15° N 04:27:59 10° NNE
Cosmos 1238 Rocket 4.1 04:24:54 57° SE 04:24:54 57° SE 04:29:55 10° SSE
USA 215 3.9 04:22:12 10° NE 04:28:31 50° SE 04:32:46 21° SSW
Cosmos 44 Rocket 4.0 04:34:58 47° SSE 04:35:54 54° ESE 04:40:54 10° NE
Cosmos 1371 Rocket 4.1 04:38:36 71° ENE 04:38:36 71° ENE 04:43:49 10° SSE
CENTAUR R/B 3.9 04:41:20 25° N 04:41:20 25° N 04:45:03 10° NNE
USA 32 4.0 04:43:48 83° E 04:43:48 83° E 04:49:00 10° S
BREEZE-M DEB (TANK) 4.1 04:42:55 48° S 04:43:54 59° SE 04:54:46 10° ENE
SL-08 ROCKET BODY 4.2 04:38:22 10° S 04:44:20 86° W 04:50:15 10° N
Lacrosse 5 1.9 04:44:47 76° ESE 04:44:47 76° ESE 04:49:43 10° NE
Cosmos 1300 Rocket 4.3 04:43:53 10° S 04:48:11 53° E 04:52:28 10° NNE
Cosmos 2327 Rocket 4.4 04:54:03 10° SSW 05:00:23 70° W 05:06:42 10° N
Cosmos 1346 Rocket 4.0 05:05:51 32° S 05:05:51 32° S 05:08:04 10° S
Cosmos 2074 Rocket 4.0 05:03:43 10° SSW 05:09:51 55° W 05:15:59 10° N
Tiangong 2 2.4 05:13:30 35° NE 05:13:30 35° NE 05:15:43 10° E
Cosmos 2341 Rocket 4.4 05:12:02 10° S 05:18:15 65° E 05:24:25 10° NNE
Cosmos 2369 Rocket 2.6 05:14:30 17° NNW 05:18:59 63° ENE 05:24:37 10° SE
CRYOSAT 2 4.2 05:14:11 10° S 05:19:03 76° W 05:23:58 10° N
SKYMED 2 3.5 05:15:36 10° SSE 05:19:55 83° E 05:22:50 21° N
Cosmos 1603 3.9 05:18:59 39° WSW 05:20:28 48° WNW 05:25:57 10° NNE
SJ-6F 4.4 05:22:18 10° N 05:26:18 55° WNW 05:30:16 10° SSW
Kosmos-1675 4.5 05:25:03 10° S 05:27:29 49° ESE 05:35:20 10° NE
Cosmos 2184 Rocket 4.3 05:22:26 10° SW 05:28:10 41° WNW 05:34:00 10° N
NOAA 6 4.0 05:24:51 10° N 05:29:54 59° WNW 05:34:55 10° SSW
Cosmos 44 3.4 05:25:11 10° SSW 05:30:34 87° WNW 05:35:49 10° NNE
Cosmos 1536 2.6 05:36:23 10° SSW 05:40:21 76° W 05:44:23 10° N
SL-24 R/B 4.5 05:35:06 10° NNE 05:40:25 81° ESE 05:44:57 10° S
USA 229 DEB 3.9 05:34:21 10° SSW 05:41:11 74° ESE 05:48:08 10° NE
USA 229 3.9 05:34:28 10° SSW 05:41:18 74° ESE 05:48:14 10° NE
USA 129 4.0 05:39:50 10° SE 05:41:40 25° ENE 05:42:56 15° NNE
Cosmos 1943 3.1 05:37:51 10° SSW 05:43:26 68° WNW 05:49:05 10° NNE
Cosmos 1025 Rocket 3.1 05:39:11 10° N 05:43:35 82° E 05:47:55 10° S
CZ-4 R/B 3.2 05:40:19 10° NNE 05:43:54 33° E 05:47:24 10° SSE
Cosmos 2154 Rocket 4.0 05:37:56 10° SSW 05:44:02 60° W 05:50:10 10° N
Cosmos 1633 3.2 05:46:58 10° SW 05:50:17 32° WNW 05:53:36 10° NNW
Abrixas rocket 3.2 05:55:53 27° NW 05:56:43 31° NNW 05:59:46 10° NE
Cosmos 1943 Rocket 2.7 05:51:53 10° NNW 05:57:20 60° ENE 06:02:45 10° SE
Cosmos 468 4.5 05:52:41 10° SSW 05:57:56 87° WNW 06:03:16 10° NNE
DELTA 2 R/B(2) 3.3 05:59:39 26° W 06:00:51 89° N 06:02:35 10° E
Cosmos 2056 Rocket 4.5 05:59:37 20° WNW 06:01:40 25° W 06:05:47 10° SSW
Okean 1 Rocket 3.9 05:57:56 10° SW 06:01:44 28° WNW 06:05:32 10° NNW
Cosmos 1420 Rocket 4.2 05:57:07 10° NNW 06:02:22 73° ENE 06:07:33 10° SSE
Cosmos 1544 Rocket 3.8 05:59:37 10° S 06:03:57 74° E 06:08:21 10° N
CZ-3 R/B 3.1 05:56:52 10° WSW 06:04:45 24° S 06:08:11 10° SE
Lacrosse 4 Rocket 2.7 06:03:51 10° NNW 06:07:43 37° ENE 06:11:31 10° SE
COSMO-SKYMED 1 3.5 06:04:22 10° SSW 06:08:05 28° W 06:11:25 12° NW
USA 215 3.5 06:05:14 10° NE 06:11:28 49° NW 06:17:41 10° WSW
Ariane Rocket 3.3 06:08:07 10° N 06:12:54 43° WNW 06:17:39 10° SW
SL-8 Rocket 4.0 06:07:08 10° S 06:13:23 77° W 06:19:38 10° N
Cosmos 1048 Rocket 4.0 06:10:23 10° SSW 06:15:31 89° ESE 06:20:44 10° NNE
CZ-2C R/B 3.0 06:10:53 10° NNE 06:16:02 65° E 06:21:01 10° S
SPOT 3 Rocket 4.3 06:11:05 10° NNE 06:16:10 58° ESE 06:21:13 10° S
Meteor 1-29 3.9 06:20:45 10° SSE 06:24:00 47° ENE 06:27:16 10° N
AQUARIUS 4.4 06:19:45 10° NNE 06:24:17 77° ESE 06:28:45 10° S
Cosmos 1500 4.4 06:20:52 10° SSE 06:24:27 45° E 06:28:04 10° NNE
Cosmos 1975 3.4 06:21:36 10° S 06:25:38 64° E 06:29:42 10° NNE
Cosmos 2366 rocket 4.0 06:19:36 10° S 06:25:53 85° W 06:32:17 10° N
Cosmos 1959 Rocket 4.4 06:21:00 10° SSW 06:27:05 72° W 06:33:13 10° N
Lacrosse 5 3.1 06:24:03 10° W 06:28:03 24° NNW 06:32:10 10° NNE
Cosmos 1892 Rocket 3.7 06:25:09 10° NNW 06:29:30 54° W 06:33:52 10° S
Meteor 1-28 Rocket 4.3 06:26:38 10° SSW 06:29:47 25° W 06:32:58 10° NW
Helios 1B rocket 2.5 06:27:59 10° SSE 06:32:08 88° ENE 06:36:18 10° NNW
Cosmos 2218 Rocket 4.1 06:27:54 10° SSW 06:34:14 64° W 06:40:36 10° N
MOS 1 4.3 06:34:51 10° NNE 06:40:32 85° WNW 06:46:11 10° SSW
Cosmos 1340 3.4 06:38:32 10° NNW 06:41:58 33° W 06:45:22 10° SSW
IDEFIX/ARIANE 42P 2.5 06:36:58 10° N 06:42:10 75° WNW 06:47:21 10° SSW
Cosmos 1626 Rocket 4.0 06:38:03 10° N 06:42:30 70° E 06:46:51 10° SSE
CSL-04 Rocket 4.4 06:38:27 10° N 06:43:16 32° WNW 06:48:03 10° SW
Cosmos 1461 2.9 06:39:55 10° SSW 06:44:16 85° WNW 06:48:27 10° NNE
